| time (UTC) | temp F | wind direction | speed MPH | gust MPH | rain 1hr in | rain 24hr in | rain mn in | humidity % | barometer mb |
| 20260507130053 | 40 | 0 | 0.0 | 0.0 | 0.00 | 0.40 | 0.00 | 80 | 1007.2 |
| 20260507124537 | 40 | 0 | 0.0 | 0.0 | 0.00 | 0.45 | 0.00 | 80 | 1007.2 |
| 20260507123048 | 40 | 0 | 0.0 | 0.0 | 0.00 | 0.45 | 0.00 | 80 | 1007.2 |
| 20260507121543 | 40 | 0 | 0.0 | 0.0 | 0.00 | 0.45 | 0.00 | 80 | 1007.1 |
| 20260507120041 | 40 | 0 | 0.0 | 2.0 | 0.00 | 0.45 | 0.00 | 80 | 1007.1 |
| 20260507114550 | 40 | 0 | 0.0 | 2.0 | 0.00 | 0.45 | 0.00 | 80 | 1007.1 |
| 20260507113040 | 39 | 0 | 0.0 | 0.0 | 0.00 | 0.45 | 0.00 | 80 | 1007.1 |
| 20260507111538 | 39 | 0 | 0.0 | 0.0 | 0.00 | 0.45 | 0.00 | 80 | 1007.0 |
| 20260507110044 | 39 | 0 | 0.0 | 0.0 | 0.00 | 0.45 | 0.00 | 80 | 1007.1 |
| 20260507104542 | 39 | 0 | 0.0 | 0.0 | 0.00 | 0.46 | 0.00 | 81 | 1007.1 |
| 20260507103045 | 38 | 0 | 0.0 | 0.0 | 0.00 | 0.46 | 0.00 | 81 | 1007.0 |
| 20260507101540 | 38 | 0 | 1.0 | 3.0 | 0.00 | 0.46 | 0.00 | 81 | 1007.0 |
| 20260507100039 | 38 | 0 | 0.0 | 3.0 | 0.00 | 0.46 | 0.00 | 81 | 1006.9 |
| 20260507094544 | 38 | 64 | 2.0 | 3.0 | 0.00 | 0.47 | 0.00 | 82 | 1006.9 |
| 20260507093043 | 38 | 0 | 0.0 | 1.0 | 0.00 | 0.47 | 0.00 | 82 | 1006.8 |
| 20260507091541 | 38 | 0 | 0.0 | 3.0 | 0.00 | 0.47 | 0.00 | 81 | 1006.2 |
| 20260507090042 | 39 | 0 | 0.0 | 2.0 | 0.00 | 0.47 | 0.00 | 80 | 1006.6 |
| 20260507084540 | 38 | 281 | 0.0 | 4.0 | 0.00 | 0.48 | 0.00 | 81 | 1006.9 |
| 20260507083036 | 38 | 0 | 0.0 | 0.0 | 0.00 | 0.48 | 0.00 | 81 | 1007.0 |
| 20260507081539 | 38 | 0 | 0.0 | 0.0 | 0.00 | 0.48 | 0.00 | 81 | 1006.7 |
| 20260507080041 | 38 | 0 | 0.0 | 0.0 | 0.00 | 0.48 | 0.00 | 81 | 1006.7 |
| 20260507074547 | 38 | 0 | 0.0 | 0.0 | 0.00 | 0.50 | 0.00 | 81 | 1006.7 |
| 20260507073036 | 38 | 0 | 0.0 | 0.0 | 0.00 | 0.50 | 0.00 | 81 | 1006.6 |
| 20260507071543 | 38 | 0 | 0.0 | 0.0 | 0.00 | 0.50 | 0.00 | 81 | 1006.7 |
| 20260507070051 | 38 | 0 | 0.0 | 0.0 | 0.00 | 0.50 | 0.00 | 81 | 1006.3 |
| 20260507064547 | 38 | 0 | 0.0 | 0.0 | 0.00 | 0.50 | 0.00 | 81 | 1006.5 |
| 20260507063038 | 39 | 0 | 0.0 | 0.0 | 0.00 | 0.50 | 0.00 | 82 | 1006.5 |
| 20260507061539 | 39 | 0 | 0.0 | 0.0 | 0.00 | 0.50 | 0.00 | 82 | 1006.7 |
| 20260507060036 | 39 | 0 | 0.0 | 0.0 | 0.00 | 0.50 | 0.00 | 82 | 1006.7 |
| 20260507054537 | 39 | 0 | 0.0 | 0.0 | 0.00 | 0.52 | 0.00 | 82 | 1006.7 |
| 20260507053040 | 39 | 0 | 0.0 | 0.0 | 0.00 | 0.52 | 0.00 | 83 | 1006.7 |
| 20260507051541 | 40 | 0 | 0.0 | 0.0 | 0.00 | 0.52 | 0.00 | 82 | 1007.2 |
| 20260507050039 | 41 | 0 | 0.0 | 0.0 | 0.00 | 0.52 | 0.00 | 82 | 1007.2 |
| 20260507044549 | 41 | 0 | 0.0 | 0.0 | 0.00 | 0.57 | 0.00 | 82 | 1007.2 |
| 20260507043036 | 41 | 0 | 0.0 | 0.0 | 0.01 | 0.57 | 0.00 | 81 | 1007.2 |
| 20260507041546 | 41 | 0 | 0.0 | 1.0 | 0.01 | 0.57 | 0.00 | 81 | 1007.4 |
| 20260507040046 | 41 | 0 | 1.0 | 6.0 | 0.01 | 0.57 | 0.00 | 81 | 1007.7 |
| 20260507034542 | 41 | 0 | 0.0 | 3.0 | 0.01 | 0.58 | 0.57 | 81 | 1007.6 |
| 20260507033049 | 41 | 0 | 0.0 | 0.0 | 0.00 | 0.58 | 0.56 | 81 | 1007.6 |
| 20260507031552 | 41 | 0 | 0.0 | 1.0 | 0.00 | 0.58 | 0.56 | 81 | 1007.4 |
| 20260507030051 | 41 | 0 | 0.0 | 2.0 | 0.00 | 0.58 | 0.56 | 81 | 1007.6 |
| 20260507024602 | 42 | 0 | 0.0 | 2.0 | 0.00 | 0.58 | 0.56 | 81 | 1007.4 |
| 20260507023041 | 42 | 0 | 0.0 | 0.0 | 0.00 | 0.58 | 0.56 | 81 | 1007.8 |
| 20260507021550 | 42 | 0 | 0.0 | 1.0 | 0.01 | 0.58 | 0.56 | 81 | 1007.9 |
| 20260507020053 | 42 | 0 | 0.0 | 1.0 | 0.02 | 0.58 | 0.56 | 82 | 1008.0 |
| 20260507014549 | 42 | 0 | 0.0 | 4.0 | 0.03 | 0.58 | 0.56 | 82 | 1007.9 |
| 20260507013040 | 42 | 0 | 0.0 | 3.0 | 0.03 | 0.58 | 0.56 | 82 | 1007.7 |
| 20260507011544 | 42 | 0 | 0.0 | 0.0 | 0.02 | 0.57 | 0.55 | 82 | 1007.6 |
| 20260507010045 | 42 | 0 | 0.0 | 1.0 | 0.02 | 0.56 | 0.54 | 82 | 1007.6 |
| 20260507004539 | 42 | 0 | 0.0 | 2.0 | 0.01 | 0.55 | 0.52 | 82 | 1007.3 |
| 20260507003039 | 42 | 0 | 0.0 | 1.0 | 0.02 | 0.55 | 0.52 | 82 | 1006.9 |
| 20260507001542 | 42 | 0 | 0.0 | 0.0 | 0.02 | 0.55 | 0.52 | 82 | 1006.9 |
| 20260507000042 | 42 | 0 | 0.0 | 2.0 | 0.01 | 0.54 | 0.52 | 83 | 1006.5 |
| 20260506234552 | 42 | 0 | 0.0 | 2.0 | 0.01 | 0.54 | 0.52 | 83 | 1006.5 |
| 20260506233048 | 42 | 0 | 0.0 | 5.0 | 0.00 | 0.52 | 0.51 | 83 | 1006.8 |
| 20260506231541 | 42 | 0 | 0.0 | 3.0 | 0.00 | 0.52 | 0.51 | 83 | 1006.4 |
| 20260506230046 | 42 | 0 | 1.0 | 4.0 | 0.00 | 0.52 | 0.51 | 83 | 1006.2 |
| 20260506224540 | 42 | 333 | 0.0 | 2.0 | 0.00 | 0.52 | 0.51 | 83 | 1006.1 |
| 20260506223041 | 42 | 0 | 0.0 | 3.0 | 0.00 | 0.52 | 0.51 | 83 | 1006.1 |
| 20260506221539 | 42 | 0 | 0.0 | 8.0 | 0.01 | 0.52 | 0.51 | 83 | 1006.0 |
| 20260506220039 | 42 | 281 | 1.0 | 9.0 | 0.02 | 0.52 | 0.51 | 84 | 1006.0 |
| 20260506214538 | 42 | 236 | 0.0 | 4.0 | 0.02 | 0.54 | 0.51 | 83 | 1005.9 |
| 20260506213045 | 42 | 0 | 1.0 | 7.0 | 0.02 | 0.54 | 0.51 | 83 | 1006.0 |
| 20260506211544 | 42 | 261 | 1.0 | 6.0 | 0.01 | 0.52 | 0.50 | 83 | 1005.9 |
| 20260506210041 | 43 | 0 | 1.0 | 7.0 | 0.01 | 0.52 | 0.49 | 83 | 1005.8 |
| 20260506204541 | 43 | 0 | 0.0 | 7.0 | 0.02 | 0.68 | 0.49 | 83 | 1005.7 |
| 20260506203041 | 43 | 0 | 3.0 | 7.0 | 0.02 | 0.68 | 0.49 | 83 | 1005.6 |
| 20260506201540 | 43 | 0 | 0.0 | 9.0 | 0.02 | 0.68 | 0.49 | 82 | 1005.6 |
| 20260506200043 | 43 | 0 | 1.0 | 7.0 | 0.00 | 0.66 | 0.47 | 83 | 1005.5 |
| 20260506194541 | 44 | 263 | 2.0 | 8.0 | 0.01 | 0.67 | 0.47 | 82 | 1005.6 |
| 20260506193042 | 44 | 0 | 1.0 | 7.0 | 0.02 | 0.67 | 0.47 | 82 | 1005.6 |
| 20260506191538 | 44 | 333 | 2.0 | 9.0 | 0.03 | 0.67 | 0.47 | 81 | 1005.8 |
| 20260506190040 | 43 | 0 | 0.0 | 4.0 | 0.05 | 0.67 | 0.47 | 81 | 1006.1 |
| 20260506184550 | 43 | 288 | 1.0 | 6.0 | 0.06 | 0.66 | 0.46 | 82 | 1006.2 |
| 20260506183042 | 43 | 0 | 0.0 | 3.0 | 0.07 | 0.65 | 0.45 | 82 | 1006.3 |
| 20260506181540 | 43 | 0 | 0.0 | 3.0 | 0.08 | 0.64 | 0.44 | 82 | 1006.5 |
| 20260506180045 | 42 | 0 | 0.0 | 4.0 | 0.07 | 0.62 | 0.42 | 83 | 1006.7 |
| 20260506174539 | 42 | 261 | 2.0 | 9.0 | 0.07 | 0.60 | 0.40 | 84 | 1006.9 |
| 20260506173121 | 42 | 295 | 3.0 | 11.0 | 0.07 | 0.58 | 0.38 | 83 | 1006.9 |
| 20260506171543 | 43 | 298 | 2.0 | 10.0 | 0.06 | 0.56 | 0.36 | 84 | 1006.7 |
| 20260506170044 | 43 | 267 | 3.0 | 10.0 | 0.07 | 0.55 | 0.35 | 84 | 1007.0 |
| 20260506164541 | 44 | 287 | 4.0 | 11.0 | 0.06 | 0.52 | 0.33 | 84 | 1006.7 |
| 20260506163040 | 45 | 0 | 0.0 | 2.0 | 0.05 | 0.51 | 0.31 | 81 | 1006.4 |
| 20260506161539 | 45 | 0 | 0.0 | 3.0 | 0.06 | 0.50 | 0.30 | 82 | 1006.6 |
| 20260506160037 | 45 | 0 | 0.0 | 6.0 | 0.05 | 0.48 | 0.28 | 81 | 1006.8 |
| 20260506154549 | 46 | 0 | 0.0 | 2.0 | 0.04 | 0.47 | 0.27 | 81 | 1007.1 |
| 20260506153046 | 46 | 0 | 0.0 | 3.0 | 0.04 | 0.46 | 0.26 | 81 | 1007.3 |
| 20260506151541 | 46 | 0 | 0.0 | 3.0 | 0.03 | 0.44 | 0.24 | 80 | 1007.5 |
| 20260506150042 | 45 | 0 | 0.0 | 2.0 | 0.03 | 0.43 | 0.23 | 80 | 1007.4 |
| 20260506144541 | 45 | 15 | 1.0 | 5.0 | 0.03 | 0.43 | 0.23 | 81 | 1007.2 |
| 20260506143044 | 45 | 0 | 0.0 | 0.0 | 0.03 | 0.42 | 0.22 | 80 | 1007.6 |
| 20260506141540 | 45 | 0 | 1.0 | 4.0 | 0.03 | 0.41 | 0.21 | 80 | 1007.7 |
| 20260506140041 | 44 | 84 | 6.0 | 12.0 | 0.03 | 0.40 | 0.20 | 83 | 1007.8 |
| 20260506134539 | 44 | 21 | 2.0 | 9.0 | 0.05 | 0.40 | 0.20 | 83 | 1007.6 |
| 20260506133039 | 45 | 0 | 0.0 | 2.0 | 0.06 | 0.39 | 0.19 | 81 | 1007.9 |
| 20260506131546 | 45 | 0 | 0.0 | 4.0 | 0.06 | 0.38 | 0.18 | 82 | 1007.8 |